BEIDOU-3 M9 1 43581U 18062A 21111.40860318 -.00000001 00000-0 00000-0 0 9996 2 43581 54.4241 246.5532 0002080 280.0220 341.6581 1.86231820 18563 BEIDOU-3 M10 1 43582U 18062B 21111.41123881 -.00000001 00000-0 00000-0 0 9995 2 43582 54.4252 246.5422 0005227 14.4032 340.3542 1.86232030 18567 YZ-1 R/B 1 43584U 18062D 21111.01326943 .00000007 00000-0 00000-0 0 9992 2 43584 54.4493 249.4477 0034459 19.6914 340.4115 1.78870664 17831